Burns Flat, OK

10:15 AM CST on February 25, 2017 (GMT -0600)
Clinton-Sherman

Weather History for KCSM - March, 2012

Change the Weather History Date:

Saturday, March 10, 2012

  Actual Average Record
Temperature  
Mean Temperature 46 °F -  
Max Temperature 51 °F 56 °F 78 °F (2014)
Min Temperature 42 °F 34 °F 14 °F (1998)
Degree Days  
Heating Degree Days 18    
Moisture  
Dew Point 38 °F    
Average Humidity 80    
Maximum Humidity 100    
Minimum Humidity 53    
Precipitation  
Precipitation 0.18 in - - ()
Sea Level Pressure  
Sea Level Pressure 30.20 in    
Wind  
Wind Speed 8 mph (SE)    
Max Wind Speed 16 mph    
Max Gust Speed 20 mph    
Visibility 8 miles    
Events Rain    
Averages and records for this station are not official NWS values.
T = Trace of Precipitation, MM = Missing Value Source: NWS Daily Summary

Daily Weather History Graph

Daily Weather History Graph

Search for Another Location

Airport or City:

Trip Planner

Search our weather history database for the weather conditions in past years. The results will help you decide how hot, cold, wet, or windy it might be!

Date:

Astronomy

Mar. 10, 2012 Rise Set
Actual Time 6:53 AM CST 6:40 PM CST
Civil Twilight 6:28 AM CST 7:05 PM CST
Nautical Twilight 5:58 AM CST 7:35 PM CST
Astronomical Twilight 5:29 AM CST 8:05 PM CST
Moon 9:45 PM CST (3/10) 7:58 AM CST (3/10)
Length of Visible Light 12h 37m
Length of Day
11h 46m
Waning Gibbous, 92% of the Moon is Illuminated
Mar 10
Waning Gibbous
Mar 14
Last Quarter
Mar 22
New
Mar 30
First Quarter
Apr 6
Full

Hourly Weather History & Observations

Time (CST) Temp. Windchill Dew Point Humidity Pressure Visibility Wind Dir Wind Speed Gust Speed Precip Events Conditions
12:53 AM 45.0 °F 42.6 °F 30.0 °F 56% 30.39 in 10.0 mi SE 4.6 mph - N/A   Overcast
1:53 AM 45.0 °F 42.6 °F 30.0 °F 56% 30.37 in 10.0 mi SE 4.6 mph - N/A   Overcast
2:53 AM 44.1 °F 42.5 °F 33.1 °F 65% 30.35 in 10.0 mi South 3.5 mph - N/A   Overcast
3:53 AM 42.1 °F 38.4 °F 26.1 °F 53% 30.32 in 10.0 mi SSE 5.8 mph - N/A   Clear
4:53 AM 43.0 °F - 34.0 °F 71% 30.33 in 10.0 mi Calm Calm - N/A   Overcast
5:53 AM 45.0 °F 43.5 °F 28.9 °F 53% 30.32 in 10.0 mi ESE 3.5 mph - N/A   Overcast
6:53 AM 42.1 °F 37.7 °F 33.1 °F 70% 30.34 in 10.0 mi South 6.9 mph - 0.00 in Rain Light Rain
7:53 AM 43.0 °F 39.5 °F 33.1 °F 68% 30.33 in 10.0 mi SE 5.8 mph - 0.00 in Rain Light Rain
8:53 AM 46.0 °F 41.9 °F 32.0 °F 58% 30.34 in 10.0 mi SSE 8.1 mph - 0.00 in   Overcast
9:53 AM 45.0 °F 40.1 °F 35.1 °F 68% 30.34 in 9.0 mi ESE 9.2 mph - 0.00 in Rain Light Rain
10:53 AM 48.0 °F - 33.1 °F 56% 30.30 in 10.0 mi SE 13.8 mph - 0.00 in   Overcast
11:53 AM 48.9 °F - 33.1 °F 54% 30.27 in 10.0 mi SE 13.8 mph - N/A   Overcast
12:53 PM 51.1 °F - 35.1 °F 54% 30.24 in 10.0 mi SE 15.0 mph - N/A   Overcast
1:53 PM 51.1 °F - 35.1 °F 54% 30.20 in 10.0 mi SE 12.7 mph - 0.00 in Rain Light Rain
2:53 PM 46.9 °F - 41.0 °F 80% 30.21 in 6.0 mi SSE 13.8 mph 19.6 mph 0.04 in Rain Light Rain
3:50 PM 44.6 °F 40.7 °F 41.0 °F 87% 30.18 in 6.0 mi SSE 6.9 mph - 0.01 in Rain Light Rain
3:53 PM 45.0 °F 41.2 °F 41.0 °F 86% 30.19 in 6.0 mi South 6.9 mph - 0.02 in Rain Light Rain
4:03 PM 44.6 °F 41.4 °F 41.0 °F 87% 30.17 in 5.0 mi SSE 5.8 mph - 0.01 in Rain Rain
4:51 PM 44.6 °F 38.1 °F 42.8 °F 93% 30.13 in 7.0 mi ESE 13.8 mph - 0.03 in Rain Light Rain
4:53 PM 45.0 °F 38.9 °F 43.0 °F 93% 30.14 in 8.0 mi ESE 12.7 mph - 0.03 in Rain Light Rain
4:55 PM 44.6 °F 38.8 °F 42.8 °F 93% 30.14 in 9.0 mi ESE 11.5 mph - 0.00 in Rain Light Rain
5:07 PM 44.6 °F 37.4 °F 42.8 °F 93% 30.13 in 9.0 mi ESE 16.1 mph - 0.00 in   Overcast
5:18 PM 44.6 °F 38.1 °F 42.8 °F 93% 30.13 in 10.0 mi ESE 13.8 mph - 0.00 in   Overcast
5:53 PM 44.1 °F 37.1 °F 41.0 °F 89% 30.12 in 9.0 mi ESE 15.0 mph - 0.00 in   Overcast
6:51 PM 42.8 °F 37.0 °F 41.0 °F 93% 30.12 in 4.0 mi ESE 10.4 mph - 0.01 in Rain Light Rain
6:53 PM 43.0 °F 37.2 °F 41.0 °F 93% 30.13 in 5.0 mi ESE 10.4 mph - 0.01 in Rain Light Rain
7:53 PM 43.0 °F 37.2 °F 41.0 °F 93% 30.12 in 10.0 mi ESE 10.4 mph - 0.00 in   Overcast
8:53 PM 43.0 °F 36.0 °F 41.0 °F 93% 30.12 in 7.0 mi SSE 13.8 mph - 0.01 in Rain Light Rain
9:29 PM 42.8 °F 38.0 °F 41.0 °F 93% 30.12 in 2.5 mi SSE 8.1 mph - 0.00 in Rain Light Rain
9:39 PM 42.8 °F 37.5 °F 42.8 °F 100% 30.11 in 3.0 mi SSE 9.2 mph - 0.00 in Rain Light Rain
9:53 PM 42.1 °F 37.1 °F 42.1 °F 100% 30.12 in 3.0 mi South 8.1 mph - 0.00 in Rain Light Rain
10:38 PM 42.8 °F 36.2 °F 42.8 °F 100% 30.12 in 7.0 mi SSE 12.7 mph - 0.01 in Rain Light Rain
10:53 PM 43.0 °F 36.4 °F 41.0 °F 93% 30.12 in 9.0 mi SSE 12.7 mph - 0.02 in Rain Light Rain
11:20 PM 42.8 °F 36.6 °F 41.0 °F 93% 30.10 in 6.0 mi SSE 11.5 mph - 0.01 in Rain Light Rain
11:41 PM 42.8 °F 36.6 °F 41.0 °F 93% 30.09 in 5.0 mi SSE 11.5 mph - 0.02 in Rain Light Rain
11:53 PM 42.1 °F 36.6 °F 41.0 °F 96% 30.09 in 4.0 mi SSE 9.2 mph - 0.05 in Rain Heavy Rain